Location: Unspecified
(0.0000°N, 0.0000°E)
Time: 19:33:31
(UTC+00:00)

AO-7 - Visible Passes

Search period start: 18 May 2026 00:00
Search period end: 28 May 2026 00:00
Orbit: 1440 x 1459 km, 102.0° (Epoch: 18 May)

Date Brightness Start Highest point End Pass type
(mag) Time Alt. Az. Time Alt. Az. Time Alt. Az.
18 May ? 18:11:29 10° SSE 18:19:53 89° ENE 18:28:16 10° NNW visible
19 May ? 04:48:48 10° ENE 04:53:52 18° ESE 04:58:53 10° SE visible
19 May ? 19:05:03 10° S 19:12:30 37° WSW 19:19:57 10° NW visible
20 May ? 20:02:17 10° SW 20:04:58 12° WSW 20:07:41 10° W visible
21 May ? 04:42:35 10° ENE 04:46:46 15° ESE 04:50:57 10° SE visible
21 May ? 18:57:41 10° S 19:05:23 42° WSW 19:13:07 10° NW visible
22 May ? 05:31:36 10° NE 05:39:17 43° ESE 05:46:58 10° S visible
22 May ? 19:53:52 10° SW 19:57:54 14° WSW 20:01:56 10° WNW visible
23 May ? 04:36:43 10° E 04:39:41 12° ESE 04:42:38 10° SE visible
23 May ? 18:50:21 10° S 18:58:17 48° WSW 19:06:13 10° NW visible
24 May ? 05:24:44 10° NE 05:32:11 38° ESE 05:39:36 10° S visible
24 May ? 19:45:52 10° SW 19:50:49 17° WSW 19:55:46 10° WNW visible
25 May ? 18:43:05 10° S 18:51:11 55° WSW 18:59:16 10° NNW visible
26 May ? 05:17:56 10° NE 05:25:04 33° ESE 05:32:12 10° SSE visible
26 May ? 19:38:05 10° SSW 19:43:43 20° WSW 19:49:23 10° WNW visible
27 May ? 18:35:50 10° S 18:44:04 62° WSW 18:52:17 10° NNW visible
